Aeroporto :
LOGIN :

Iscrizione | Disclaimer

   EN    FR    IT 

 










Sommario :    VFR   VFR Marginale   IFR   IFR Intensivo   IFR Molto Intensivo
Visibilità : 
Base nubi : 
>= 8 km
>= 3000ft
5 / 8 km
1000 / 3000 ft
1500m / 5 km
500 / 1000 ft
800 / 1500m
200 / 500 ft
< 800m
< 200 ft
Simboli :   Temporali  Nebbia  Neve Forte  Precipitazioni Forti  Vento > 20 kt
SIGMETs :   Varie  Temporali  Ghiacco  Turbolenza  Onda orograficha  Ceneri Vulcaniche






- Altitudine del aeroporto : 352 ft
- Codice IATA : KSD


ESOK - Karlstad

ULTIMO METAR :
  • 081250Z 22014KT CAVOK 13/M01 Q1020

METARs OBSOLETI :
  • 081220Z 23015KT CAVOK 13/01 Q1020
  • 081150Z 23014KT CAVOK 13/02 Q1021
  • 081120Z 23014KT CAVOK 12/01 Q1021
  • 081050Z 23016KT CAVOK 11/02 Q1022
  • 081020Z 22016KT CAVOK 11/02 Q1022
  • 080950Z 22016KT 9999 FEW040 11/03 Q1023

TAF TAF ESOK
Valido dal 08 a 12 ore il 08 a 15 ore UTC


081130Z 0812/0815 23016KT CAVOK
TEMPO 0812/0815 23016G26KT



MetMap, La meteo Aeronautica in un colpo d'occhio ! - Copyright ORBIFLY Dicembre 2007 - Disclaimer

ORBIFLY MET'MAP TEAM :

Programmazione e sviluppo : Alexandra Zaïnal
Concezione : Baudouin d'Aumeries
Aiuto per la programmazione : Marc-Olivier Méhu
Supporto tecnico e logistico : Manuel Goepfert
Aiuto per la traduzione : Arnaldo La Scala

Contatto : metmap@orbifly.com




FONTI E CREDITI :

   NOAA